Location: Castillon
(43.0896°N, 0.2156°E)
Time: 17:10:52
(UTC+00:00)

FENGYUN 1C DEB - Pass Details

Date: 05 February 2022
Orbit: 828 x 915 km, 99.0° (Epoch: 25 May)

Event Time Altitude Azimuth Distance (km) Brightness Sun altitude
Exits shadow 19:56:53 10° 6° (N) 2,446 ? -29.5°
Drops below altitude 10° 19:56:55 10° 6° (N) 2,455 ? -29.5°
Sets 19:59:30 0° 356° (N) 3,387 ? -30.0°
